Voltar ao catálogo

TIANGONG

WENTIAN

AtivoCiênciaVLEO
NORAD 53239·PAYLOAD·🇨🇳 China

Lançado Jul 24, 2022 de Wenchang Space Launch Site

Loading…

Próximas Passagens (próximas 24 horas)

TLE

AtualizadoSource: Space-Track

Época: Sep 14, 2026, 14:01 UTC

1 53239U 22085A   26257.58463244  .00018605  00000-0  22780-3 0  9999
2 53239  41.4676 139.2408 0002663 278.8217  81.2320 15.59928303288235

Acompanhe TIANGONG em tempo real com AllMySat

Download on the App Store